Terminal Aerodrome Forecast
Issued by NWS

Home | Current Version | Previous Version | Text Only | Print | Product List | Glossary On
Versions: 1 2 3 4 5 6 7 8 9 10 11 12 13 14 15 16 17 18 19 20 21 22 23 24 25 26 27 28 29 30 31 32 33
000
FTUS42 KMFL 242321
TAFMIA
TAF
KMIA 242321Z 2500/2524 13004KT P6SM SCT050
     FM250600 VRB02KT 6SM BR SCT005
     FM251400 26005KT P6SM SCT030
     FM251900 16009KT P6SM SCT035=

USA.gov is the U.S. government's official web portal to all federal, state and local government web resources and services.